YAMAL 300K

Last updated on Thu Nov 21 2024 00:02:42 GMT+0000 (Coordinated Universal Time)

1 38978U 12061B 24325.57179646 .00000072 00000+0 00000+0 0 9993 2 38978 0.0122 305.0921 0001308 346.6953 157.0932 1.00270397 43889
UTC large
Height (km)
Speed (km/s)
/
Latitude / Longitude
Inclination (degrees)
Orbital Period (minutes)
Azimuth
Elevation
Range (km)
Doppler Factor

Next 0 passes for location: London (51.5072 / 0.1276)

Sorry there are no passes over London.